OpenBCM V2.0.2 (Linux)

Packet Radio Mailbox

IZ3LSV

[San Dona' di P. JN]

 Login: GUEST





  
CX2SA  > KEP      25.03.20 02:01l 86 Lines 3608 Bytes #999 (0) @ ARL
BID : ARLK024
Read: GUEST
Subj: ARLK024 Keplerian data
Path: IZ3LSV<IQ2LB<IK1NHL<CX2SA
Sent: 200324/2331Z @:CX2SA.SAL.URY.SOAM #:27255 [Salto] FBB7.00e $:ARLK024
From: CX2SA@CX2SA.SAL.URY.SOAM
To  : KEP@ARL


ZCZC SK24
QST de W1AW
Keplerian Bulletin 24  ARLK024
From ARRL Headquarters
Newington, CT  March 24, 2020
To all radio amateurs

SB KEP ARL ARLK024
ARLK024 Keplerian data

Special thanks to AMSAT-NA (AMSAT.ORG) for the following Keplerian
data.

Decode 2-line elsets with the following key:
1 AAAAAU 00  0  0 BBBBB.BBBBBBBB  .CCCCCCCC  00000-0  00000-0 0  DDDZ
2 AAAAA EEE.EEEE FFF.FFFF GGGGGGG HHH.HHHH III.IIII JJ.JJJJJJJJKKKKKZ
KEY: A-CATALOGNUM B-EPOCHTIME C-DECAY D-ELSETNUM E-INCLINATION F-RAAN
G-ECCENTRICITY H-ARGPERIGEE I-MNANOM J-MNMOTION K-ORBITNUM Z-CHECKSUM

0 AO-07
1 7530U 74089B   20083.77287538 -.00000049  00000-0 -23053-4 0  9995
2 7530 101.7904  54.0255 0012200 167.4757 256.6418 12.53642649 75491
0 FO-29
1 24278U 96046B   20083.76215858 -.00000025  00000-0  12438-4 0  9993
2 24278  98.5710 204.8658 0349481 236.6744 120.0482 13.53096855165542
0 ISS
1 25544U 98067A   20084.64177083 -.00000550  00000-0 -17961-5 0  9991
2 25544  51.6450  46.7931 0004940  54.3394 289.2919 15.48910399218907
0 SO-50
1 27607U 02058C   20083.77286347  .00000003  00000-0  21104-4 0  9999
2 27607  64.5540 276.3304 0058647 199.1822 160.7073 14.75617965928212
0 CO-55
1 27844U 03031E   20083.74399288  .00000049  00000-0  41720-4 0  9996
2 27844  98.6845  92.7631 0008881 307.7148  52.3224 14.22227308867954
0 RS-22
1 27939U 03042A   20084.46004927  .00000100  00000-0  26568-4 0  9997
2 27939  98.0746 220.4781 0011515 261.0146  98.9760 14.66844854881559
0 RS-30
1 32953U 08025A   20084.48667171  .00000037  00000-0  19437-3 0  9998
2 32953  82.5064 330.7615 0018155 239.2954 120.6343 12.43094655537078
0 KKS-1
1 33499U 09002H   20083.80278961  .00000104  00000-0  23247-4 0  9990
2 33499  98.3278 296.0937 0010000  43.8331 316.3669 14.75513977600386
0 AO-71
1 37854U 11061E   20083.66144860  .00001113  00000-0  63896-4 0  9996
2 37854 101.7070 130.6545 0158671 316.9423  41.9464 15.07087078459004
0 AO-73
1 39444U 13066AE  20083.75638311  .00000207  00000-0  31689-4 0  9997
2 39444  97.5597  88.7330 0057727 190.0181 169.9887 14.82082572341268
0 UKUBE 1
1 40074U 14037F   20084.42382632  .00000270  00000-0  39458-4 0  9996
2 40074  98.4535 267.6962 0005348  42.2729 317.8904 14.84216484309146
0 XW-2A
1 40903U 15049E   20084.48678227  .00002224  00000-0  52729-4 0  9992
2 40903  97.2993 133.3408 0012330 204.6507 268.6858 15.42772965253373
0 XW-2F
1 40910U 15049M   20084.52475764  .00001192  00000-0  62280-4 0  9992
2 40910  97.4682  89.2731 0013024 299.9235 181.4921 15.17782942249457
0 XW-2B
1 40911U 15049N   20084.55633344  .00000734  00000-0  41496-4 0  9993
2 40911  97.4762  87.5503 0012709 312.3421 172.0572 15.16123224249304
0 IO-86
1 40931U 15052B   20077.49197252  .00000678  00000-0  52654-5 0  9993
2 40931   5.9961 271.2559 0013249  55.3737 304.7768 14.76628550241645
0 CAS-4B
1 42759U 17034B   20084.55099270  .00000208  00000-0  26133-4 0  9992
2 42759  43.0189 133.5156 0011559 222.6282 286.8965 15.09770022153133
0 CAS-4A
1 42761U 17034D   20084.56136626  .00000102  00000-0  19657-4 0  9999
2 42761  43.0187 132.8141 0012187 223.0266 262.0183 15.09847244153134
0 AO-91
1 43017U 17073E   20083.73231045  .00000801  00000-0  68090-4 0  9997
2 43017  97.7260 359.2642 0256640 329.9553  28.7139 14.78851695126494
0 AO-92
1 43137U 18004AC  20083.73612392  .00001049  00000-0  46331-4 0  9992
2 43137  97.4532 155.4544 0009191   7.7831 352.3547 15.23953582121987

Keplerian bulletins are transmitted twice weekly from W1AW.  The
next scheduled transmission of these data will be Friday, March 27,
2020, at 2230z on Baudot and BPSK31.
NNNN


Read previous mail | Read next mail


 03.05.2026 07:21:47lGo back Go up